{"data":{"norad_id":65786,"intl_designator":"2025-217AA","name":"KUIPER-00173","alt_names":[],"object_type":"PAYLOAD","status":"ACTIVE","operator":null,"country":"US","launch_date":"2025-09-25","launch_site_code":"AFETR","launch_vehicle":null,"mission":null,"orbit_class":"UNKNOWN","rcs_meters":null,"size_class":null,"mass_kg":null,"dimensions":null,"purposes":[],"wikipedia_slug":null,"has_3d_model":false,"image_url":null,"decayed_at":null,"tle_current":{"epoch":"2026-09-20T15:39:53.769024Z","epoch_age_seconds":133547,"freshness":"FRESH","line1":"1 65786U 25217AA  26263.65270566  .00001686  00000+0  25012-3 0  9998","line2":"2 65786  51.9003 250.9890 0000566  45.6469 314.4540 14.79937347 53885","mean_motion":14.79937347,"eccentricity":5.66e-5,"inclination_deg":51.9003,"raan_deg":250.989,"arg_perigee_deg":45.6469,"mean_anomaly_deg":314.454,"bstar":0.00025012,"rev_number":5388,"period_min":97.301416368676,"perigee_km":629.12527331265,"apogee_km":629.9185403009,"semimajor_km":7007.6589068068,"source":"CELESTRAK","updated_at":"2026-09-21T09:00:15.562438Z"}}}